Babitonga — A8CO2 — position and weather

sailwx.info

Track history (hours):
 
Tides and Currents Weather Stations Pressure Air Temp Water Temp Dewpoint Dewpoint Depression Visibility Wind Speed Wind Dir Waves Ship Positions

Babitonga

Last reported at 2014-Oct-24 09:32 UTC. Time now 2014-Oct-24 10:26 UTC.
Position S 33°03' E 152°29'.

Length 225 m; beam 32.3 m; draft 13 m.

Type: Cargo ship. MMSI: 636090672.

Date/timePositionNaut miles runAvg speedWind from/ knotsBaromVisibWave heightAir tempDewpointWater temp
2014-Oct-24 09:32S 33°03' E 152°29'5 5.2
2014-Oct-24 08:33S 33°08' E 152°27'7 6.7
2014-Oct-24 07:33S 33°14' E 152°24'16 7.2
2014-Oct-24 05:17S 33°29' E 152°15'16 1.0
2014-Oct-23 13:10S 33°14' E 152°22'2 2.7
2014-Oct-23 12:31S 33°12' E 152°23'3 2.7
2014-Oct-23 11:33S 33°10' E 152°25'3 2.7
2014-Oct-23 10:33S 33°08' E 152°27'3 2.6
2014-Oct-23 09:29S 33°07' E 152°24'7 7.4
2014-Oct-23 08:32S 33°09' E 152°16'8 7.9
2014-Oct-23 07:33S 33°10' E 152°07'2 1.9
2014-Oct-23 06:33S 33°10' E 152°09'2 2.3
2014-Oct-23 05:33S 33°09' E 152°11'2 2.2
2014-Oct-23 04:33S 33°08' E 152°14'2 2.1
2014-Oct-23 03:33S 33°09' E 152°16'9 9.0
2014-Oct-23 02:33S 33°18' E 152°14'9 9.1
2014-Oct-23 01:33S 33°27' E 152°12'9 8.9
2014-Oct-23 00:29S 33°36' E 152°10'8 8.9
2014-Oct-22 23:34S 33°44' E 152°08'9 8.8
2014-Oct-22 22:32S 33°53' E 152°06'9 8.5
2014-Oct-22 21:30S 34°02' E 152°03'51 1.3
2014-Oct-21 06:33S 33°11' E 152°10'9 9.1
2014-Oct-21 05:33S 33°02' E 152°08'4 3.6
2014-Oct-21 04:33S 32°59' E 152°07'1 1.5
2014-Oct-21 03:33S 32°59' E 152°09'1 1.4
2014-Oct-21 02:33S 33°00' E 152°10'1 1.2
2014-Oct-21 01:33S 33°01' E 152°11'1 1.1
2014-Oct-21 00:33S 33°02' E 152°12'1 1.0
2014-Oct-20 23:33S 33°03' E 152°12'1 0.8
2014-Oct-20 22:33S 33°04' E 152°12'1 0.8
2014-Oct-20 21:33S 33°04' E 152°13'1 0.9
2014-Oct-20 20:33S 33°05' E 152°14'1 0.9
2014-Oct-20 19:33S 33°06' E 152°14'1 0.9
2014-Oct-20 18:33S 33°07' E 152°15'1 1.0
2014-Oct-20 17:33S 33°07' E 152°16'1 1.2
2014-Oct-20 16:33S 33°08' E 152°16'1 1.3
2014-Oct-20 15:33S 33°10' E 152°17'1 1.2
2014-Oct-20 14:33S 33°11' E 152°18'1 1.1
2014-Oct-20 13:33S 33°12' E 152°18'1 1.2
2014-Oct-20 12:32S 33°13' E 152°18'1 1.2
2014-Oct-20 11:33S 33°14' E 152°19'3 3.3
2014-Oct-20 10:33S 33°11' E 152°19'7 7.4
2014-Oct-20 09:33S 33°04' E 152°18'6 6.5
2014-Oct-20 08:33S 32°59' E 152°12'0 0.5
2014-Oct-20 07:33S 32°59' E 152°12'1 1.5
2014-Oct-20 06:33S 33°01' E 152°13'1 1.4
2014-Oct-20 05:33S 33°02' E 152°13'2 1.5
2014-Oct-20 04:33S 33°03' E 152°14'1 1.5
2014-Oct-20 03:33S 33°05' E 152°14'1 1.4
2014-Oct-20 02:33S 33°06' E 152°14'3 3.4
2014-Oct-20 01:33S 33°05' E 152°11'7 7.4
2014-Oct-20 00:33S 33°00' E 152°04'3 3.4
2014-Oct-19 23:33S 32°58' E 152°00'1111.2
2014-Oct-19 22:33S 32°55' E 152°13'1211.6
2014-Oct-19 21:33S 32°51' E 152°26'1212.1
2014-Oct-19 20:33S 32°44' E 152°38'1212.2
2014-Oct-19 19:33S 32°35' E 152°47'1412.1
2014-Oct-19 18:22S 32°22' E 152°53'27512.5
2014-Oct-18 20:24S 27°54' E 154°05'4113.0
2014-Oct-18 17:13S 27°13' E 154°05'1012.7
2014-Oct-18 16:27S 27°03' E 154°04'  
Track history (hours):
 
Tides and Currents Weather Stations Pressure Air Temp Water Temp Dewpoint Dewpoint Depression Visibility Wind Speed Wind Dir Waves Ship Positions

Babitonga

Last reported at 2014-Oct-24 09:32 UTC. Time now 2014-Oct-24 10:26 UTC.
Position S 33°03' E 152°29'.

Length 225 m; beam 32.3 m; draft 13 m.

Type: Cargo ship. MMSI: 636090672.

Date/timePositionNaut miles runAvg speedWind from/ knotsBaromVisibWave heightAir tempDewpointWater temp
2014-Oct-24 09:32S 33°03' E 152°29'5 5.2
2014-Oct-24 08:33S 33°08' E 152°27'7 6.7
2014-Oct-24 07:33S 33°14' E 152°24'16 7.2
2014-Oct-24 05:17S 33°29' E 152°15'16 1.0
2014-Oct-23 13:10S 33°14' E 152°22'2 2.7
2014-Oct-23 12:31S 33°12' E 152°23'3 2.7
2014-Oct-23 11:33S 33°10' E 152°25'3 2.7
2014-Oct-23 10:33S 33°08' E 152°27'3 2.6
2014-Oct-23 09:29S 33°07' E 152°24'7 7.4
2014-Oct-23 08:32S 33°09' E 152°16'8 7.9
2014-Oct-23 07:33S 33°10' E 152°07'2 1.9
2014-Oct-23 06:33S 33°10' E 152°09'2 2.3
2014-Oct-23 05:33S 33°09' E 152°11'2 2.2
2014-Oct-23 04:33S 33°08' E 152°14'2 2.1
2014-Oct-23 03:33S 33°09' E 152°16'9 9.0
2014-Oct-23 02:33S 33°18' E 152°14'9 9.1
2014-Oct-23 01:33S 33°27' E 152°12'9 8.9
2014-Oct-23 00:29S 33°36' E 152°10'8 8.9
2014-Oct-22 23:34S 33°44' E 152°08'9 8.8
2014-Oct-22 22:32S 33°53' E 152°06'9 8.5
2014-Oct-22 21:30S 34°02' E 152°03'51 1.3
2014-Oct-21 06:33S 33°11' E 152°10'9 9.1
2014-Oct-21 05:33S 33°02' E 152°08'4 3.6
2014-Oct-21 04:33S 32°59' E 152°07'1 1.5
2014-Oct-21 03:33S 32°59' E 152°09'1 1.4
2014-Oct-21 02:33S 33°00' E 152°10'1 1.2
2014-Oct-21 01:33S 33°01' E 152°11'1 1.1
2014-Oct-21 00:33S 33°02' E 152°12'1 1.0
2014-Oct-20 23:33S 33°03' E 152°12'1 0.8
2014-Oct-20 22:33S 33°04' E 152°12'1 0.8
2014-Oct-20 21:33S 33°04' E 152°13'1 0.9
2014-Oct-20 20:33S 33°05' E 152°14'1 0.9
2014-Oct-20 19:33S 33°06' E 152°14'1 0.9
2014-Oct-20 18:33S 33°07' E 152°15'1 1.0
2014-Oct-20 17:33S 33°07' E 152°16'1 1.2
2014-Oct-20 16:33S 33°08' E 152°16'1 1.3
2014-Oct-20 15:33S 33°10' E 152°17'1 1.2
2014-Oct-20 14:33S 33°11' E 152°18'1 1.1
2014-Oct-20 13:33S 33°12' E 152°18'1 1.2
2014-Oct-20 12:32S 33°13' E 152°18'1 1.2
2014-Oct-20 11:33S 33°14' E 152°19'3 3.3
2014-Oct-20 10:33S 33°11' E 152°19'7 7.4
2014-Oct-20 09:33S 33°04' E 152°18'6 6.5
2014-Oct-20 08:33S 32°59' E 152°12'0 0.5
2014-Oct-20 07:33S 32°59' E 152°12'1 1.5
2014-Oct-20 06:33S 33°01' E 152°13'1 1.4
2014-Oct-20 05:33S 33°02' E 152°13'2 1.5
2014-Oct-20 04:33S 33°03' E 152°14'1 1.5
2014-Oct-20 03:33S 33°05' E 152°14'1 1.4
2014-Oct-20 02:33S 33°06' E 152°14'3 3.4
2014-Oct-20 01:33S 33°05' E 152°11'7 7.4
2014-Oct-20 00:33S 33°00' E 152°04'3 3.4
2014-Oct-19 23:33S 32°58' E 152°00'1111.2
2014-Oct-19 22:33S 32°55' E 152°13'1211.6
2014-Oct-19 21:33S 32°51' E 152°26'1212.1
2014-Oct-19 20:33S 32°44' E 152°38'1212.2
2014-Oct-19 19:33S 32°35' E 152°47'1412.1
2014-Oct-19 18:22S 32°22' E 152°53'27512.5
2014-Oct-18 20:24S 27°54' E 154°05'4113.0
2014-Oct-18 17:13S 27°13' E 154°05'1012.7
2014-Oct-18 16:27S 27°03' E 154°04'  

Dump ship's entire track history